Regional Weather Roundup
Issued by NWS

Home | Current Version | Previous Version | Graphics & Text | Print | Product List | Glossary On
Versions: 1 2 3 4 5 6 7 8 9 10 11 12 13 14 15 16 17 18 19 20 21 22 23 24 25 26 27 28 29 30 31 32 33 34 35 36 37 38 39 40 41 42 43 44 45 46 47 48 49 50
741
ASUS43 KBIS 220302
RWRND

NORTH DAKOTA REGIONAL WEATHER ROUNDUP
NATIONAL WEATHER SERVICE BISMARCK ND
1000 PM CDT MON AUG 21 2017

NOTE: "FAIR" INDICATES FEW OR NO CLOUDS BELOW 12,000 FEET WITH NO
SIGNIFICANT WEATHER AND/OR OBSTRUCTIONS TO VISIBILITY.


NDZ001>003-009>011-017-220400-
NORTHWEST NORTH DAKOTA

CITY           SKY/WX    TMP DP  RH WIND       PRES   REMARKS
WILLISTON      CLEAR     54  37  52 N9        30.13R
MINOT          CLEAR     60  40  47 W9        30.09R
MINOT AFB      CLEAR     51  38  61 NW8       30.07R
$$

NDZ018>021-031>035-040>046-220400-
SOUTHWEST NORTH DAKOTA

CITY           SKY/WX    TMP DP  RH WIND       PRES   REMARKS
BISMARCK       PTCLDY    61  46  57 W3        30.11R
DICKINSON      CLEAR     60  37  42 N7        30.14R
GARRISON         N/A     52  43  71 NW9       30.10R
HETTINGER ARPT CLEAR     58  39  49 N8        30.17R
$$

NDZ004>008-012>016-024-026-027-054-220400-
NORTHEAST NORTH DAKOTA

CITY           SKY/WX    TMP DP  RH WIND       PRES   REMARKS
GRAND FORKS    PTCLDY    60  56  86 N10       29.98R
GRND FRKS AFB  CLEAR     59  55  85 N8        29.99R
DEVILS LAKE    CLEAR     58  47  66 NW7       30.04R
$$

NDZ022-023-025-028>030-036>039-047>053-220400-
SOUTHEAST NORTH DAKOTA

CITY           SKY/WX    TMP DP  RH WIND       PRES   REMARKS
FARGO          PTCLDY    66  54  65 NW20      29.95R
JAMESTOWN      PTCLDY    57  49  74 NW9       30.03R
$$





USA.gov is the U.S. government's official web portal to all federal, state and local government web resources and services.